Location: Wellington
(41.3000°S, 174.7830°E)
Time: 14:08:48
(UTC+13:00)

CZ-4B DEB - Pass Details

Date: 24 January 2019
Orbit: 455 x 459 km, 97.4° (Epoch: 21 February)

Event Time Altitude Azimuth Distance (km) Brightness Sun altitude
Rises 22:49:21 0° 166° (SSE) 2,521 8.7 -18.6°
Reaches altitude 10° 22:51:26 10° 163° (SSE) 1,636 7.6 -18.9°
Maximum altitude 22:54:56 67° 79° (E) 508 4.4 -19.3°
Enters shadow 22:55:08 65° 53° (NE) 516 4.3 -19.3°
